sat.trackr.live / text

‹ back to catalog

STARLINK-6094

NORAD 56122 · 2023-046AF

PAYLOAD ACTIVE UNKNOWN

§ Identity

Operator
Country
US
Launch date
2023-03-29
Launch site
AFETR
Launch vehicle
Mass (kg)
RCS (m²)

Purposes: comms

External: N2YO · Heavens-Above · Gunter

§ Orbital elements

Epoch: 2026-05-24T21:33:50.992704Z

Period
94.27 min
Inclination
43.0057°
Eccentricity
0.0001581
Mean motion
15.27576391 rev/d
Perigee alt
482.0 km
Apogee alt
484.1 km
Semi-major
6,861.2 km
B*
1.8578e-5
RAAN
88.0063°
Arg perigee
284.7903°
Mean anomaly
75.2773°
Rev number
17,372

§ Raw data

STARLINK-60941 56122U 23046AF  26144.89850686  .00000249  00000+0  18578-4 0  99952 56122  43.0057  88.0063 0001581 284.7903  75.2773 15.27576391173727

JSON: /api/v1/satellites/56122 · /tle

For live sub-satellite position, see the globe view (requires WebGL).

§ Visibility from observer

Set your observer location to see the next 7 days of passes ≥ 10°. The values pass through the URL so the page stays shareable.

No JS? Fill the form by hand. The geolocation button needs JavaScript.